Regional Weather Roundup
Issued by NWS Sterling, VA

Home | Current Version | Previous Version | Text Only | Print | Product List | Glossary On
Versions: 1 2 3 4 5 6 7 8 9 10 11 12 13 14 15 16 17 18 19 20 21 22 23 24 25 26 27 28 29 30 31 32 33 34 35 36 37 38 39 40 41 42 43 44 45 46 47 48 49 50
000
ASUS41 KLWX 190010
RWRLWX

REGIONAL WEATHER ROUNDUP
NATIONAL WEATHER SERVICE BALTIMORE MD/WASHINGTON DC
800 PM EDT SAT APR 18 2015

Note: "FAIR" indicates few or no clouds below 12,000 feet
with no significant weather and/or obstructions to visibility.
 TC=TEMPERATURE CELSIUS

 * =Non NWS site. Station does not report precipitation (e.g. rain,
    snow, etc.), thunder, or fog.

DCZ001-MDZ009-015-VAZ040>042-051-053>054-190100-
WASHINGTON METRO

CITY           SKY/WX    TMP DP  RH WIND       PRES   REMARKS
WASHINGTON NAT CLOUDY    76  47  35 CALM      29.96R
DULLES         CLOUDY    68  48  48 CALM      29.97R
ANDREWS AFB    CLOUDY    68  49  51 SE5       29.96R
FT BELVOIR     CLOUDY    70  50  48 SE1       29.96R
QUANTICO       MOCLDY    73  50  44 CALM      29.97R
COLLEGE PARK*  CLOUDY    72  45  37 SE6       29.96R
LEESBURG*      CLOUDY    73  46  38 SW10      29.98R
MANASSAS*      CLEAR     73  48  40 CALM      29.96R
GAITHERSBURG*  CLOUDY    72  43  35 CALM      30.00S

$$

MDZ006>007-011-014-190100-
BALTIMORE METRO

CITY           SKY/WX    TMP DP  RH WIND       PRES   REMARKS
BWI AIRPORT    CLOUDY    71  46  40 S6        29.95S
MD SCIENCE CTR   N/A     73  47  39 MISG      29.94F
MARTIN STATE   MOCLDY    70  54  56 S5        29.96F
ANNAPOLIS      CLOUDY    66  50  56 CALM      29.96S
FORT MEADE*    CLOUDY    70  46  43 S7        29.98R

$$

MDZ012-015-019>023-190100-
MARYLAND EASTERN SHORE

CITY           SKY/WX    TMP DP  RH WIND       PRES   REMARKS
OCEAN CITY     PTCLDY    60  52  74 S5        30.00R
SALISBURY      MOCLDY    65  49  56 SE7       29.98S
BAY BRIDGE AP*   N/A     70  48  46 SE3       29.96S
EASTON*        CLEAR     73  48  40 CALM      30.00F

$$

MDZ017>025-190100-
SOUTHERN MARYLAND

CITY           SKY/WX    TMP DP  RH WIND       PRES   REMARKS
PATUXENT RIVER CLOUDY    64  51  62 SE3       29.96F
ST INIGOES     CLOUDY    68  50  52 CALM      29.96S
LEONARDTOWN*   CLOUDY    68  45  42 CALM      29.99R

$$

MDZ003>005-190100-
NORTH CENTRAL MARYLAND

CITY           SKY/WX    TMP DP  RH WIND       PRES   REMARKS
FREDERICK*     CLEAR     73  37  27 CALM      29.98R
HAGERSTOWN APT CLOUDY    75  39  27 CALM      29.96S
WESTMINSTER*   CLOUDY    73  43  33 CALM      29.97R

$$

MDZ501>502-190100-
WESTERN MARYLAND

CITY           SKY/WX    TMP DP  RH WIND       PRES   REMARKS
OAKLAND*       CLOUDY    63  39  42 CALM      30.07S
CUMBERLAND*    CLOUDY    73  37  27 NW6       30.02R

$$

VAZ025>031-190100-
SHENANDOAH VALLEY

CITY           SKY/WX    TMP DP  RH WIND       PRES   REMARKS
WINCHESTER*    CLOUDY    70  41  35 CALM      29.97R
FRONT ROYAL*   NOT AVBL
LURAY*         FAIR      70  52  52 CALM      29.98S
NEW MARKET*    FAIR      68  49  51 CALM      29.96R
STAUNTON*      MOCLDY    74  44  33 N3        30.01R
WAYNESBORO*    NOT AVBL

$$

WVZ021-048>050-054>055-190100-
EASTERN WEST VIRGINIA PANHANDLE

CITY           SKY/WX    TMP DP  RH WIND       PRES   REMARKS
MARTINSBURG    CLOUDY    69  48  47 S3        29.97R
PETERSBURG*    MOCLDY    67  47  49 W6        30.00R

$$

VAZ036>039-050-190100-
CENTRAL FOOTHILLS

CITY           SKY/WX    TMP DP  RH WIND       PRES   REMARKS
CHARLOTTESVILL PTCLDY    72  48  42 NE3       29.98R
CULPEPER*      MOCLDY    72  59  64 CALM      29.98R
ORANGE*        MOCLDY    70  54  56 CALM      30.00R
GORDONSVILLE*  FAIR      68  52  57 NE3       29.98R
WARRENTON*     FAIR      67  53  60 CALM      29.97R

$$

VAZ055>057-190100-
NORTH AND CENTRAL PIEDMONT

CITY           SKY/WX    TMP DP  RH WIND       PRES   REMARKS
FREDERICKSBRG* MOCLDY    75  48  38 CALM      29.96R
STAFFORD*      MOCLDY    69  46  43 CALM      30.01R

$$

NCZ024-NYZ072-PAZ021-071-VAZ022-071-190100-
OTHER REGIONAL OBSERVATIONS

CITY           SKY/WX    TMP DP  RH WIND       PRES   REMARKS
NEW YORK CITY  CLEAR     75  40  28 VRB7      29.92R
PHILADELPHIA   MOCLDY    73  42  32 SW13      29.93S
PITTSBURGH     CLOUDY    71  41  33 N15       30.03R
ROANOKE        MOCLDY    74  50  42 SE8       29.98R
RICHMOND       MOCLDY    72  51  47 SE9       29.97R
RALEIGH        CLOUDY    69  63  81 S5        29.95F

$$

ANZ530>537-190100-
MARINE OBSERVATIONS

STATION/POSITION TIME  TEMP    WIND        PRES
                       AIR SEA DIR/SP/G
                 (UTC) (F)     (DEG/KT/KT) (MB)
THOMAS PT LIGHT  0000   66 58  190/  8/  8 1015.2R
BALT KEY BRIDGE  2300   72     150/ 11/ 12 1014.1F
COVE POINT       2300   70     100/  3/  3 1014.7F
LEWISETTA        2300   66 61              1014.1F
SOLOMONS ISLAND  2300      57                N/A
PINEY POINT      2342          160/  4/  6   N/A

$$




USA.gov is the U.S. government's official web portal to all federal, state and local government web resources and services.